Bellaire, MI

1:19 AM EDT on August 30, 2016 (GMT -0400)
Antrim County

Weather History for KACB - October, 2012

Change the Weather History Date:

Wednesday, October 31, 2012

  Actual Average (KTVC) Record (KTVC)
Temperature  
Mean Temperature 39 °F 43 °F  
Max Temperature 41 °F 51 °F 76 °F (1950)
Min Temperature 37 °F 35 °F 22 °F (1925)
Degree Days  
Heating Degree Days 26 22  
Month to date heating degree days 526  
Since 1 July heating degree days 787  
Cooling Degree Days 0 0  
Month to date cooling degree days 4  
Year to date cooling degree days 411  
Moisture  
Dew Point 36 °F    
Average Humidity 89    
Maximum Humidity 93    
Minimum Humidity 79    
Precipitation  
Precipitation 0.00 in 0.10 in 0.86 in (2013)
Month to date precipitation 3.22  
Year to date precipitation 27.86  
Sea Level Pressure  
Sea Level Pressure 29.66 in    
Wind  
Wind Speed 7 mph (NNW)    
Max Wind Speed 10 mph    
Max Gust Speed 23 mph    
Visibility 5 miles    
Events Rain    
T = Trace of Precipitation, MM = Missing Value Source: NWS Daily Summary

Daily Weather History Graph

Daily Weather History Graph

Search for Another Location

Airport or City:

Trip Planner

Search our weather history database for the weather conditions in past years. The results will help you decide how hot, cold, wet, or windy it might be!

Date:

Astronomy

Oct. 31, 2012 Rise Set
Actual Time 8:18 AM EDT 6:29 PM EDT
Civil Twilight 7:47 AM EDT 7:00 PM EDT
Nautical Twilight 7:13 AM EDT 7:34 PM EDT
Astronomical Twilight 6:39 AM EDT 8:08 PM EDT
Moon 7:35 PM EDT (10/31) 10:03 AM EDT (10/31)
Length of Visible Light 11h 12m
Length of Day
10h 11m
Full, 97% of the Moon is Illuminated
Oct 31
Full
Nov 6
Last Quarter
Nov 13
New
Nov 20
First Quarter
Nov 28
Full

Hourly Weather History & Observations

Time (EDT) Temp. Windchill Dew Point Humidity Pressure Visibility Wind Dir Wind Speed Gust Speed Precip Events Conditions
12:12 AM 37.8 °F 31.3 °F 34.7 °F 89% 29.67 in 5.0 mi North 9.2 mph 16.1 mph N/A   Light Drizzle
12:32 AM 37.6 °F 31.0 °F 34.7 °F 89% 29.67 in 5.0 mi North 9.2 mph - N/A   Overcast
12:52 AM 37.6 °F 30.5 °F 34.7 °F 89% 29.67 in 7.0 mi North 10.4 mph - N/A   Overcast
1:12 AM 37.8 °F 31.3 °F 34.7 °F 89% 29.67 in 7.0 mi North 9.2 mph - N/A   Overcast
1:32 AM 37.4 °F 31.4 °F 34.7 °F 90% 29.67 in 5.0 mi NNE 8.1 mph - N/A   Overcast
1:52 AM 37.4 °F 30.3 °F 34.7 °F 90% 29.66 in 7.0 mi North 10.4 mph 16.1 mph N/A   Overcast
2:13 AM 37.4 °F 31.4 °F 34.3 °F 89% 29.66 in 7.0 mi NNE 8.1 mph - N/A   Overcast
2:32 AM 37.4 °F 31.4 °F 34.7 °F 90% 29.65 in 7.0 mi North 8.1 mph - N/A   Overcast
2:52 AM 37.6 °F 31.6 °F 34.7 °F 89% 29.65 in 7.0 mi North 8.1 mph - N/A   Overcast
3:13 AM 37.6 °F 31.6 °F 34.7 °F 89% 29.66 in 7.0 mi North 8.1 mph - N/A   Overcast
3:52 AM 37.8 °F 34.2 °F 35.1 °F 90% 29.65 in 5.0 mi North 4.6 mph - N/A   Overcast
4:13 AM 37.8 °F 33.3 °F 35.6 °F 92% 29.65 in 4.0 mi North 5.8 mph - N/A   Overcast
4:32 AM 37.8 °F 34.2 °F 35.6 °F 92% 29.65 in 3.0 mi North 4.6 mph - N/A   Overcast
4:52 AM 37.8 °F 32.5 °F 35.8 °F 93% 29.65 in 4.0 mi North 6.9 mph - N/A   Overcast
5:12 AM 37.9 °F 33.5 °F 35.8 °F 92% 29.65 in 7.0 mi North 5.8 mph - N/A   Overcast
5:32 AM 38.1 °F 34.6 °F 35.6 °F 91% 29.65 in 5.0 mi North 4.6 mph - N/A   Overcast
5:53 AM 37.9 °F 32.7 °F 35.6 °F 91% 29.64 in 3.0 mi North 6.9 mph - N/A   Overcast
6:12 AM 38.1 °F 35.7 °F 35.8 °F 91% 29.64 in 2.5 mi North 3.5 mph - N/A Rain Light Rain
6:32 AM 38.5 °F 34.1 °F 36.5 °F 93% 29.65 in 4.0 mi North 5.8 mph - N/A   Overcast
6:52 AM 38.8 °F 35.4 °F 36.5 °F 91% 29.65 in 5.0 mi North 4.6 mph - N/A   Overcast
7:12 AM 38.8 °F 33.8 °F 36.5 °F 91% 29.65 in 3.0 mi North 6.9 mph - N/A Rain Light Rain
7:33 AM 39.2 °F 35.0 °F 36.7 °F 91% 29.65 in 4.0 mi North 5.8 mph - N/A Rain Light Rain
7:52 AM 39.2 °F 35.9 °F 36.5 °F 90% 29.65 in 5.0 mi NNW 4.6 mph - N/A   Overcast
8:13 AM 39.2 °F 35.9 °F 36.5 °F 90% 29.65 in 4.0 mi NNW 4.6 mph - N/A Rain Light Rain
8:32 AM 38.8 °F 33.2 °F 36.1 °F 90% 29.65 in 2.5 mi North 8.1 mph - N/A   Overcast
8:52 AM 39.2 °F 33.6 °F 36.5 °F 90% 29.65 in 4.0 mi NNW 8.1 mph - N/A   Overcast
9:12 AM 39.2 °F 35.9 °F 36.5 °F 90% 29.65 in 2.0 mi North 4.6 mph - N/A   Light Drizzle
9:32 AM 39.2 °F 34.2 °F 36.9 °F 91% 29.65 in 2.5 mi North 6.9 mph - N/A Rain Light Rain
9:53 AM 39.2 °F 35.0 °F 36.7 °F 91% 29.66 in 2.0 mi NNW 5.8 mph 16.1 mph N/A   Light Drizzle
10:12 AM 39.2 °F 34.2 °F 36.7 °F 91% 29.65 in 2.5 mi NNW 6.9 mph - N/A   Overcast
10:32 AM 39.2 °F 33.6 °F 36.9 °F 91% 29.65 in 1.8 mi North 8.1 mph - N/A Rain Rain
10:53 AM 39.4 °F 35.2 °F 37.0 °F 91% 29.65 in 2.0 mi NNW 5.8 mph - N/A   Drizzle
11:12 AM 39.6 °F 36.3 °F 37.4 °F 92% 29.65 in 2.5 mi NNW 4.6 mph - N/A   Drizzle
11:32 AM 39.7 °F 34.3 °F 37.4 °F 91% 29.65 in 2.5 mi NNW 8.1 mph - N/A Rain Light Rain
11:53 AM 40.1 °F 34.7 °F 37.4 °F 90% 29.65 in 3.0 mi NNW 8.1 mph - N/A Rain Light Rain
12:17 PM 40.1 °F 35.3 °F 37.4 °F 90% 29.65 in 4.0 mi NNW 6.9 mph - N/A   Overcast
12:32 PM 40.1 °F 35.3 °F 37.4 °F 90% 29.65 in 3.0 mi NNW 6.9 mph 18.4 mph N/A Rain Rain
12:53 PM 41.0 °F 35.8 °F 36.9 °F 85% 29.65 in 10.0 mi NNW 8.1 mph - N/A   Overcast
1:12 PM 41.4 °F 37.6 °F 36.5 °F 83% 29.65 in 10.0 mi North 5.8 mph 16.1 mph N/A   Overcast
1:33 PM 41.5 °F 36.4 °F 35.6 °F 79% 29.65 in 10.0 mi NNW 8.1 mph 23.0 mph N/A   Overcast
1:53 PM 41.4 °F 36.8 °F 36.9 °F 84% 29.65 in 10.0 mi NW 6.9 mph - N/A   Overcast
2:17 PM 40.6 °F 35.4 °F 37.8 °F 89% 29.65 in 2.5 mi NNW 8.1 mph - N/A Rain Light Rain
2:33 PM 40.6 °F 36.0 °F 37.9 °F 90% 29.65 in 2.5 mi NW 6.9 mph - N/A   Drizzle
3:12 PM 40.6 °F 36.7 °F 37.9 °F 90% 29.65 in 2.5 mi NW 5.8 mph 17.3 mph N/A Rain Rain
3:33 PM 40.6 °F 36.7 °F 37.8 °F 89% 29.65 in 3.0 mi NW 5.8 mph - N/A Rain Light Rain
3:52 PM 40.8 °F 37.8 °F 37.8 °F 89% 29.65 in 2.5 mi NNW 4.6 mph - N/A Rain Light Rain
4:12 PM 41.0 °F 36.4 °F 37.6 °F 88% 29.65 in 5.0 mi NNW 6.9 mph - N/A   Overcast
4:33 PM 41.0 °F 38.0 °F 36.9 °F 85% 29.65 in 7.0 mi NNW 4.6 mph - N/A   Overcast
4:52 PM 41.2 °F 39.2 °F 36.7 °F 84% 29.66 in 10.0 mi NW 3.5 mph - N/A   Overcast
5:13 PM 41.4 °F 36.2 °F 35.8 °F 81% 29.66 in 10.0 mi NNW 8.1 mph 19.6 mph N/A   Overcast
5:33 PM 41.2 °F 36.0 °F 35.6 °F 81% 29.66 in 10.0 mi NNW 8.1 mph - N/A   Overcast
5:52 PM 41.0 °F 35.8 °F 36.0 °F 82% 29.67 in 7.0 mi NNW 8.1 mph - N/A   Overcast
6:13 PM 40.5 °F 34.6 °F 36.5 °F 86% 29.68 in 5.0 mi NNW 9.2 mph - N/A Rain Light Rain
6:33 PM 41.0 °F 36.4 °F 35.6 °F 81% 29.68 in 7.0 mi NW 6.9 mph 20.7 mph N/A   Overcast
6:52 PM 40.3 °F 34.4 °F 36.5 °F 86% 29.68 in 5.0 mi NNW 9.2 mph - N/A   Overcast
7:13 PM 39.7 °F 35.6 °F 36.5 °F 88% 29.69 in 5.0 mi North 5.8 mph - N/A   Overcast
7:33 PM 39.6 °F 34.0 °F 36.7 °F 89% 29.69 in 4.0 mi NNW 8.1 mph - N/A Rain Rain
8:13 PM 39.7 °F 35.6 °F 36.7 °F 89% 29.70 in 4.0 mi NNW 5.8 mph - N/A   Overcast
8:32 PM 39.7 °F 34.9 °F 37.0 °F 90% 29.70 in 3.0 mi NNW 6.9 mph - N/A Rain Light Rain
8:52 PM 39.7 °F 34.3 °F 37.4 °F 91% 29.70 in 4.0 mi NNW 8.1 mph - N/A   Drizzle
9:13 PM 40.1 °F 34.7 °F 37.0 °F 89% 29.70 in 7.0 mi NNW 8.1 mph - N/A   Overcast
9:32 PM 40.3 °F 37.1 °F 36.9 °F 88% 29.70 in 4.0 mi NNW 4.6 mph - N/A Rain Rain
9:53 PM 40.3 °F 34.9 °F 36.7 °F 87% 29.70 in 7.0 mi North 8.1 mph - N/A   Light Drizzle
10:13 PM 40.5 °F 36.5 °F 36.5 °F 86% 29.70 in 10.0 mi NNW 5.8 mph 17.3 mph N/A   Overcast
10:32 PM 40.5 °F 36.5 °F 36.5 °F 86% 29.69 in 7.0 mi North 5.8 mph - N/A Rain Light Rain
11:13 PM 40.5 °F 37.3 °F 36.7 °F 86% 29.70 in 10.0 mi NNW 4.6 mph - N/A   Overcast
11:32 PM 40.5 °F 35.8 °F 36.7 °F 86% 29.69 in 10.0 mi NNW 6.9 mph 18.4 mph N/A   Overcast
11:52 PM 40.3 °F 35.5 °F 36.9 °F 88% 29.69 in 10.0 mi NNW 6.9 mph - N/A Rain Light Rain